| time (UTC) | temp F | wind direction | speed knots | gust knots | rain 1hr in | rain 24hr in | rain mn in | humidity % | barometer mb |
| 20260506051244 | 63 | 182 | 0.0 | 1.7 | 0.00 | 0.00 | 0.00 | 58 | 1008.9 |
| 20260506050215 | 64 | 185 | 0.0 | 0.0 | 0.00 | 0.00 | 0.00 | 57 | 1008.8 |
| 20260506044142 | 64 | 60 | 0.0 | 0.0 | 0.00 | 0.00 | 0.00 | 56 | 1008.8 |
| 20260506043157 | 63 | 60 | 0.0 | 0.0 | 0.00 | 0.00 | 0.00 | 58 | 1009.0 |
| 20260506042141 | 63 | 60 | 0.0 | 1.7 | 0.00 | 0.00 | 0.00 | 59 | 1008.8 |
| 20260506041203 | 64 | 60 | 0.0 | 0.0 | 0.00 | 0.00 | 0.00 | 58 | 1008.5 |
| 20260506040148 | 64 | 336 | 0.9 | 3.5 | 0.00 | 0.00 | 0.00 | 58 | 1008.4 |
| 20260506034012 | 65 | 321 | 0.9 | 4.3 | 0.00 | 0.00 | 0.00 | 53 | 1008.4 |
| 20260506032951 | 66 | 333 | 1.7 | 3.5 | 0.00 | 0.00 | 0.00 | 52 | 1008.1 |
| 20260506031934 | 66 | 14 | 0.9 | 1.7 | 0.00 | 0.00 | 0.00 | 54 | 1008.0 |
| 20260506025803 | 68 | 334 | 2.6 | 3.5 | 0.00 | 0.00 | 0.00 | 54 | 1008.0 |
| 20260506023640 | 71 | 329 | 0.9 | 1.7 | 0.00 | 0.00 | 0.00 | 51 | 1007.5 |
| 20260506022610 | 73 | 331 | 0.9 | 3.5 | 0.00 | 0.00 | 0.00 | 50 | 1007.3 |
| 20260506021550 | 74 | 5 | 0.9 | 3.5 | 0.00 | 0.00 | 0.00 | 46 | 1007.4 |
| 20260506020529 | 75 | 347 | 0.9 | 2.6 | 0.00 | 0.00 | 0.00 | 46 | 1007.1 |
| 20260506014438 | 76 | 5 | 0.9 | 4.3 | 0.00 | 0.00 | 0.00 | 41 | 1007.5 |
| 20260506013434 | 77 | 9 | 0.9 | 4.3 | 0.00 | 0.00 | 0.00 | 41 | 1007.5 |
| 20260506012444 | 77 | 355 | 1.7 | 4.3 | 0.00 | 0.00 | 0.00 | 40 | 1007.5 |
| 20260506010356 | 78 | 5 | 1.7 | 3.5 | 0.00 | 0.00 | 0.00 | 37 | 1007.3 |
| 20260506004214 | 79 | 0 | 1.7 | 5.2 | 0.00 | 0.00 | 0.00 | 37 | 1007.3 |
| 20260506003210 | 79 | 338 | 0.9 | 4.3 | 0.00 | 0.00 | 0.00 | 33 | 1007.2 |
| 20260506002223 | 79 | 5 | 1.7 | 4.3 | 0.00 | 0.00 | 0.00 | 33 | 1007.3 |
| 20260506001249 | 79 | 11 | 1.7 | 4.3 | 0.00 | 0.00 | 0.00 | 32 | 1007.4 |
| 20260505232859 | 79 | 49 | 1.7 | 7.0 | 0.00 | 0.00 | 0.00 | 35 | 1007.2 |
| 20260505231847 | 79 | 325 | 2.6 | 7.0 | 0.00 | 0.00 | 0.00 | 31 | 1007.3 |
| 20260505230908 | 79 | 344 | 2.6 | 6.1 | 0.00 | 0.00 | 0.00 | 31 | 1007.3 |
| 20260505225904 | 79 | 351 | 2.6 | 7.0 | 0.00 | 0.00 | 0.00 | 30 | 1007.4 |
| 20260505224926 | 79 | 10 | 1.7 | 7.8 | 0.00 | 0.00 | 0.00 | 32 | 1007.5 |
| 20260505223947 | 79 | 319 | 2.6 | 7.8 | 0.00 | 0.00 | 0.00 | 33 | 1007.6 |
| 20260505222942 | 79 | 60 | 1.7 | 7.0 | 0.00 | 0.00 | 0.00 | 36 | 1007.5 |
| 20260505221911 | 79 | 19 | 2.6 | 7.0 | 0.00 | 0.00 | 0.00 | 33 | 1007.6 |
| 20260505220857 | 79 | 69 | 3.5 | 7.0 | 0.00 | 0.00 | 0.00 | 34 | 1007.7 |
| 20260505214748 | 78 | 334 | 2.6 | 8.7 | 0.00 | 0.00 | 0.00 | 39 | 1008.0 |
| 20260505212657 | 78 | 46 | 2.6 | 7.8 | 0.00 | 0.00 | 0.00 | 40 | 1008.0 |
| 20260505211637 | 77 | 26 | 2.6 | 7.8 | 0.00 | 0.00 | 0.00 | 38 | 1008.1 |
| 20260505205515 | 76 | 288 | 3.5 | 9.6 | 0.00 | 0.00 | 0.00 | 40 | 1008.5 |
| 20260505204503 | 76 | 18 | 1.7 | 7.0 | 0.00 | 0.00 | 0.00 | 44 | 1008.4 |
| 20260505203449 | 75 | 355 | 1.7 | 5.2 | 0.00 | 0.00 | 0.00 | 41 | 1008.6 |
| 20260505202452 | 75 | 13 | 0.9 | 4.3 | 0.00 | 0.00 | 0.00 | 42 | 1008.6 |
| 20260505201429 | 75 | 330 | 2.6 | 7.8 | 0.00 | 0.00 | 0.00 | 40 | 1008.6 |
| 20260505200449 | 74 | 84 | 2.6 | 7.8 | 0.00 | 0.00 | 0.00 | 42 | 1008.8 |
| 20260505195431 | 74 | 335 | 1.7 | 5.2 | 0.00 | 0.00 | 0.00 | 44 | 1008.6 |
| 20260505194456 | 73 | 313 | 1.7 | 7.8 | 0.00 | 0.00 | 0.00 | 44 | 1008.6 |
| 20260505193443 | 73 | 40 | 0.9 | 7.8 | 0.00 | 0.00 | 0.00 | 45 | 1008.6 |
| 20260505192500 | 71 | 172 | 1.7 | 6.1 | 0.00 | 0.00 | 0.00 | 53 | 1008.9 |
| 20260505191506 | 71 | 311 | 0.9 | 5.2 | 0.00 | 0.00 | 0.00 | 50 | 1008.9 |
| 20260505190454 | 70 | 300 | 2.6 | 5.2 | 0.00 | 0.00 | 0.00 | 54 | 1009.1 |
| 20260505185440 | 70 | 281 | 1.7 | 5.2 | 0.00 | 0.00 | 0.00 | 52 | 1009.1 |
| 20260505184425 | 70 | 251 | 1.7 | 5.2 | 0.00 | 0.00 | 0.00 | 53 | 1009.1 |
| 20260505183450 | 69 | 302 | 1.7 | 7.8 | 0.00 | 0.00 | 0.00 | 51 | 1009.2 |
| 20260505182443 | 68 | 261 | 1.7 | 7.8 | 0.00 | 0.00 | 0.00 | 56 | 1009.2 |
| 20260505181442 | 67 | 273 | 2.6 | 7.0 | 0.00 | 0.00 | 0.00 | 57 | 1009.3 |
| 20260505180431 | 67 | 298 | 2.6 | 7.0 | 0.00 | 0.00 | 0.00 | 59 | 1009.3 |
| 20260505175357 | 67 | 303 | 2.6 | 5.2 | 0.00 | 0.00 | 0.00 | 57 | 1008.8 |
| 20260505174357 | 67 | 17 | 0.9 | 7.0 | 0.00 | 0.00 | 0.00 | 56 | 1008.8 |
| 20260505173352 | 66 | 298 | 1.7 | 7.0 | 0.00 | 0.00 | 0.00 | 61 | 1008.9 |
| 20260505170041 | 64 | 279 | 2.6 | 7.0 | 0.00 | 0.00 | 0.00 | 60 | 1008.9 |
| 20260505165043 | 64 | 343 | 2.6 | 6.1 | 0.00 | 0.00 | 0.00 | 61 | 1008.5 |
| 20260505164016 | 64 | 256 | 2.6 | 5.2 | 0.00 | 0.00 | 0.00 | 62 | 1008.5 |
| 20260505162957 | 63 | 257 | 1.7 | 5.2 | 0.00 | 0.00 | 0.00 | 64 | 1008.6 |
| 20260505162020 | 63 | 286 | 1.7 | 5.2 | 0.00 | 0.00 | 0.00 | 64 | 1008.7 |
| 20260505152632 | 59 | 261 | 3.5 | 6.1 | 0.00 | 0.00 | 0.00 | 72 | 1008.5 |
| 20260505151606 | 59 | 214 | 4.3 | 7.8 | 0.00 | 0.00 | 0.00 | 75 | 1008.4 |
| 20260505150546 | 58 | 246 | 4.3 | 7.8 | 0.00 | 0.00 | 0.00 | 79 | 1008.6 |
| 20260505140318 | 50 | 215 | 1.7 | 3.5 | 0.00 | 0.00 | 0.00 | 90 | 1008.3 |
| 20260505123710 | 51 | 202 | 1.7 | 2.6 | 0.00 | 0.00 | 0.00 | 88 | 1006.8 |
| 20260505121533 | 52 | 200 | 1.7 | 2.6 | 0.00 | 0.00 | 0.00 | 87 | 1006.6 |
| 20260505120539 | 53 | 201 | 1.7 | 2.6 | 0.00 | 0.00 | 0.00 | 86 | 1006.3 |
| 20260505114421 | 54 | 212 | 0.0 | 1.7 | 0.00 | 0.00 | 0.00 | 86 | 1006.0 |
| 20260505113445 | 54 | 227 | 1.7 | 2.6 | 0.00 | 0.00 | 0.00 | 86 | 1006.0 |
| 20260505112506 | 54 | 200 | 0.9 | 2.6 | 0.00 | 0.00 | 0.00 | 85 | 1006.1 |
| 20260505111446 | 54 | 200 | 1.7 | 3.5 | 0.00 | 0.00 | 0.00 | 85 | 1006.1 |
| 20260505110449 | 54 | 211 | 1.7 | 3.5 | 0.00 | 0.00 | 0.00 | 85 | 1006.0 |
| 20260505101239 | 53 | 200 | 3.5 | 4.3 | 0.00 | 0.00 | 0.00 | 85 | 1005.6 |
| 20260505100303 | 52 | 190 | 3.5 | 6.1 | 0.00 | 0.00 | 0.00 | 86 | 1005.6 |
| 20260505095301 | 52 | 205 | 3.5 | 6.1 | 0.00 | 0.00 | 0.00 | 86 | 1005.7 |
| 20260505094325 | 51 | 207 | 1.7 | 3.5 | 0.00 | 0.00 | 0.00 | 87 | 1005.7 |
| 20260505093305 | 51 | 219 | 1.7 | 2.6 | 0.00 | 0.00 | 0.00 | 85 | 1005.6 |
| 20260505092239 | 51 | 196 | 1.7 | 3.5 | 0.00 | 0.00 | 0.00 | 85 | 1005.8 |
| 20260505091229 | 50 | 193 | 1.7 | 3.5 | 0.00 | 0.00 | 0.00 | 85 | 1005.8 |
| 20260505090204 | 51 | 218 | 1.7 | 3.5 | 0.00 | 0.00 | 0.00 | 84 | 1005.6 |
| 20260505085216 | 51 | 183 | 1.7 | 2.6 | 0.00 | 0.00 | 0.00 | 83 | 1005.6 |
| 20260505084157 | 51 | 197 | 2.6 | 3.5 | 0.00 | 0.00 | 0.00 | 81 | 1005.6 |
| 20260505083141 | 52 | 192 | 1.7 | 3.5 | 0.00 | 0.00 | 0.00 | 79 | 1005.7 |
| 20260505082129 | 54 | 220 | 1.7 | 3.5 | 0.00 | 0.00 | 0.00 | 77 | 1005.5 |
| 20260505081148 | 54 | 171 | 0.9 | 3.5 | 0.00 | 0.00 | 0.00 | 76 | 1005.6 |
| 20260505080116 | 55 | 209 | 0.9 | 2.6 | 0.00 | 0.00 | 0.00 | 76 | 1005.3 |
| 20260505075107 | 56 | 222 | 0.9 | 4.3 | 0.00 | 0.00 | 0.00 | 74 | 1005.3 |
| 20260505074103 | 56 | 186 | 0.9 | 4.3 | 0.00 | 0.00 | 0.00 | 73 | 1005.3 |
| 20260505071953 | 57 | 290 | 1.7 | 3.5 | 0.00 | 0.00 | 0.00 | 71 | 1004.9 |
| 20260505071005 | 56 | 257 | 0.0 | 2.6 | 0.00 | 0.00 | 0.00 | 72 | 1005.0 |
| 20260505070024 | 56 | 248 | 0.9 | 4.3 | 0.00 | 0.00 | 0.00 | 72 | 1005.0 |
| 20260505065027 | 58 | 270 | 2.6 | 4.3 | 0.00 | 0.00 | 0.00 | 67 | 1004.8 |
| 20260505062903 | 61 | 276 | 0.0 | 2.6 | 0.00 | 0.00 | 0.00 | 61 | 1004.7 |
| 20260505061831 | 61 | 269 | 0.0 | 1.7 | 0.00 | 0.00 | 0.00 | 62 | 1004.7 |
| 20260505060830 | 60 | 144 | 0.0 | 3.5 | 0.00 | 0.00 | 0.00 | 64 | 1004.8 |